User: anonymous   Login
Location: York
(31.8935°S, 116.7682°E)
Time: 04:52:41
(UTC+08:00)
Language:

A-11 Canister half - Orbit

View from above orbital plane
View from above orbital plane
View from above satellite
View from above satellite

Ground track
Ground track

The orbit data is extracted from the following two-line orbital elements,

1 00051U 60009C   21163.82139840 -.00000055  00000-0  28839-3 0  9993
2 00051  47.2135 312.5339 0108261 154.2313 206.3921 12.18276665708027
Epoch (UTC): 12 June 2021 19:42:48
Eccentricity: 0.0108261
inclination: 47.2135°
perigee height: 1513 km
apogee height: 1686 km
right ascension of ascending node: 312.5339°
argument of perigee: 154.2313°
revolutions per day: 12.18276665
mean anomaly at epoch: 206.3921°
orbit number at epoch: 70802

The dashed part of the orbit path shows where the satellite is in the earth's shadow,  

DLR